TimeMST,TemperatureF,Dew PointF,Humidity,Sea Level PressureIn,VisibilityMPH,Wind Direction,Wind SpeedMPH,Gust SpeedMPH,PrecipitationIn,Events,Conditions,WindDirDegrees,DateUTC
12:52 AM,21.0,19.0,92,30.14,10.0,Calm,Calm,-,N/A,,Clear,0,2013-12-01 07:52:00
1:52 AM,23.0,19.9,88,30.14,10.0,Calm,Calm,-,N/A,,Clear,0,2013-12-01 08:52:00
2:52 AM,19.9,17.1,89,30.13,10.0,Calm,Calm,-,N/A,,Clear,0,2013-12-01 09:52:00
3:52 AM,19.9,18.0,92,30.12,10.0,Calm,Calm,-,N/A,,Clear,0,2013-12-01 10:52:00
4:52 AM,24.1,19.9,84,30.13,10.0,Calm,Calm,-,N/A,,Clear,0,2013-12-01 11:52:00
5:52 AM,26.1,23.0,88,30.14,10.0,West,4.6,-,N/A,,Partly Cloudy,260,2013-12-01 12:52:00
6:52 AM,28.9,24.1,82,30.14,10.0,Calm,Calm,-,N/A,,Overcast,0,2013-12-01 13:52:00
7:52 AM,32.0,26.1,79,30.13,10.0,Calm,Calm,-,N/A,,Overcast,0,2013-12-01 14:52:00
8:52 AM,36.0,28.0,73,30.13,10.0,West,4.6,-,N/A,,Mostly Cloudy,260,2013-12-01 15:52:00
9:52 AM,43.0,28.9,58,30.09,10.0,WSW,6.9,-,N/A,,Mostly Cloudy,250,2013-12-01 16:52:00
10:52 AM,46.9,28.9,50,30.05,10.0,WSW,11.5,-,N/A,,Mostly Cloudy,250,2013-12-01 17:52:00
11:52 AM,48.0,28.9,48,30.00,10.0,West,13.8,-,N/A,,Partly Cloudy,260,2013-12-01 18:52:00
12:52 PM,50.0,30.0,46,29.97,10.0,West,9.2,-,N/A,,Overcast,260,2013-12-01 19:52:00
1:52 PM,53.1,28.9,40,29.91,10.0,WSW,9.2,-,N/A,,Clear,240,2013-12-01 20:52:00
2:52 PM,50.0,28.9,44,29.91,10.0,West,4.6,-,N/A,,Clear,260,2013-12-01 21:52:00
3:52 PM,44.1,28.0,53,29.89,10.0,SSE,4.6,-,N/A,,Clear,160,2013-12-01 22:52:00
4:52 PM,41.0,28.0,60,29.86,10.0,Calm,Calm,-,N/A,,Partly Cloudy,0,2013-12-01 23:52:00
5:52 PM,39.9,28.0,63,29.85,10.0,West,4.6,-,N/A,,Overcast,280,2013-12-02 00:52:00
6:52 PM,42.1,28.0,58,29.80,10.0,Calm,Calm,-,N/A,,Partly Cloudy,0,2013-12-02 01:52:00
7:52 PM,36.0,27.0,70,29.80,10.0,Calm,Calm,-,N/A,,Clear,0,2013-12-02 02:52:00
8:52 PM,37.0,28.0,70,29.75,10.0,Calm,Calm,-,N/A,,Clear,0,2013-12-02 03:52:00
9:52 PM,39.0,28.0,65,29.73,10.0,WSW,3.5,-,N/A,,Clear,250,2013-12-02 04:52:00
10:52 PM,35.1,27.0,72,29.73,10.0,SSW,5.8,-,N/A,,Clear,210,2013-12-02 05:52:00
11:52 PM,37.0,28.9,73,29.71,10.0,SW,8.1,-,N/A,,Clear,220,2013-12-02 06:52:00